Regional Weather Roundup
Issued by NWS

Home | Current Version | Previous Version | Text Only | Print | Product List | Glossary Off
Versions: 1 2 3 4 5 6 7 8 9 10 11 12 13 14 15 16 17 18 19 20 21 22 23 24 25 26 27 28 29 30 31 32 33 34 35 36 37 38 39 40 41 42 43 44 45 46 47 48 49 50

000
ASUS43 KLOT 010608
RWRIL

ILLINOIS REGIONAL WEATHER ROUNDUP
NATIONAL WEATHER SERVICE CHICAGO/ROMEOVILLE IL
100 AM CDT SUN MAY 01 2016

NOTE: "FAIR" INDICATES FEW OR NO CLOUDS BELOW 12,000 FEET WITH NO
SIGNIFICANT WEATHER AND/OR OBSTRUCTIONS TO VISIBILITY.

* THESE STATIONS ARE NOT UNDER NWS QUALITY CONTROL. THEY ALSO MAY NOT
  REPORT WEATHER SUCH AS PRECIPITATION OR FOG.

ILZ001-002-007-009-015-016-024-010700-
NORTHWEST ILLINOIS

CITY           SKY/WX    TMP DP  RH WIND       PRES   REMARKS
MOLINE         CLOUDY    47  44  90 NE13      29.92R
6HR MIN TEMP:  47; 6HR MAX TEMP:  47;

STERLING*      CLOUDY    46  45  93 NE10      29.93R
SAVANNA*       CLOUDY    45  43  95 NE7       29.94R FOG
$$

ILZ003-004-008-010-011-017-018-010700-
NORTH CENTRAL ILLINOIS

CITY           SKY/WX    TMP DP  RH WIND       PRES   REMARKS
ROCKFORD       CLOUDY    47  44  90 NE12      29.96R
6HR MIN TEMP:  45; 6HR MAX TEMP:  47; 6HR PCP:  0.08;

FREEPORT*      CLOUDY    43  43  98 NE10      29.96R FOG
ROCHELLE*      CLOUDY    46  44  95 NE13      29.93R FOG
DE KALB*       CLOUDY    46  45  97 E14       29.93R FOG
$$

ILZ005-006-012>014-019>023-010700-
NORTHEAST ILLINOIS

CITY           SKY/WX    TMP DP  RH WIND       PRES   REMARKS
CHICAGO-OHARE  DRIZZLE   45  44  97 NE10      29.91S FOG
6HR MIN TEMP:  44; 6HR MAX TEMP:  45; 6HR PCP:  0.11;

CHICAGO-MIDWAY DRIZZLE   46  44  93 NE13      29.90F FOG
6HR MIN TEMP:  46; 6HR MAX TEMP:  47; 6HR PCP:  0.05;

AURORA         CLOUDY    47  45  93 NE12      29.91R FOG
6HR MIN TEMP:  46; 6HR MAX TEMP:  47; 6HR PCP:  0.01;

LANSING*       CLOUDY    46  46 100 NE6       29.90S FOG
JOLIET*        CLOUDY    48  47  96 NE9       29.90F FOG
WAUKEGAN       CLOUDY    43  43 100 NE10      29.94S FOG
6HR MIN TEMP:  43; 6HR MAX TEMP:  44; 6HR PCP:  0.06;

DUPAGE AIRPORT CLOUDY    46  43  89 NE14      29.91R FOG
6HR MIN TEMP:  45; 6HR MAX TEMP:  46; 6HR PCP:  0.06;

KANKAKEE*      CLOUDY    48  47  97 NE8       29.88S FOG
WHEELING       CLOUDY    45  44  97 NE12      29.94S FOG
6HR MIN TEMP:  44; 6HR MAX TEMP:  45; 6HR PCP:  0.07;

MORRIS*        CLOUDY    47  46  95 NE5       29.89F FOG
ROMEOVILLE*    CLOUDY    46  44  95 NE12      29.89F FOG
NORTHERLY ISL    N/A     44  43  96 N14         N/A
NORTHERLY ISL    N/A     44  43  96 N14         N/A
$$

LMZ740>746-010700-
SOUTHERN LAKE MICHIGAN

STATION/POSITION SKY/WX   TEMP    WIND        PRES    VSBY  WAVE
                          AIR SEA DIR/SP/G                  HT/PER
                          (F)     (DEG/KT/KT) (MB)    (MI)  (FT/S)
SOUTHERN BUOY              43 40   60/ 14/ 16 1013.7F         3/ 4
HARRISON CRIB              45      50/ 19/ 21   N/A
BURNHAM HARBOR             44      30/ 14/ 17   N/A
CALUMET HARBOR             45      30/ 12/ 14 1012.4R
BURNS HARBOR               47      50/ 12/ 19 1012.9R
MICHIGAN CITY              48      50/ 10/ 10   N/A
ST. JOSEPH                 49 48                N/A           2/ 4
$$

ILZ025>027-034>036-040-047-049-050-058-095>099-010700-
WEST-CENTRAL ILLINOIS

CITY           SKY/WX    TMP DP  RH WIND       PRES   REMARKS
QUINCY         FOG       54  53  97 NE10      29.85S VSB 3/4
GALESBURG*     CLOUDY    46  46  99 NE8       29.90R FOG
MACOMB*        FOG       49  49 100 NE9       29.90R VSB 3/4
JACKSONVILLE*  FOG       57  56  96 N5        29.86R VSB 1/2
PITTSFIELD*    PTCLDY    54  53  99 NW3       29.86S
$$

ILZ028>032-037-038-041>044-048-051>054-059>061-010700-
CENTRAL ILLINOIS

CITY           SKY/WX    TMP DP  RH WIND       PRES   REMARKS
PONTIAC        CLOUDY    49  49 100 NE12      29.88R FOG
BLOOMINGTON    FOG       50  50 100 NE12      29.87R VSB 1/4
DECATUR        CLOUDY    62  55  77 S9        29.82F
PEORIA         CLOUDY    49  47  93 NE14      29.87S FOG
6HR MIN TEMP:  49; 6HR MAX TEMP:  53;

LACON*         CLOUDY    47  46  97 NE3       29.89S FOG
LINCOLN*       FOG       54  54 100 N6        29.85R VSB 1
SPRINGFIELD    FOG       57  56  96 N8        29.85R VSB 1/2
6HR MIN TEMP:  57; 6HR MAX TEMP:  68; 6HR PCP:  0.05;

TAYLORVILLE    CLOUDY    61  54  77 S20       29.85R
$$

ILZ033-039-045-046-055>057-062-063-010700-
EAST-CENTRAL ILLINOIS

CITY           SKY/WX    TMP DP  RH WIND       PRES   REMARKS
CHAMPAIGN      FOG       57  57 100 E7        29.83S VSB 1/4
RANTOUL*       DRZL/FOG  55  55  99 E7        29.83F VSB 1/2
MATTOON        CLOUDY    63  59  87 S8        29.83F
PARIS*         MOCLDY    62  62  99 S8        29.85F
$$

ILZ079-100>102-010700-
SOUTHWEST ILLINOIS

CITY           SKY/WX    TMP DP  RH WIND       PRES   REMARKS
ALTON          CLOUDY    58  56  92 CALM      29.84F
BELLEVILLE     CLOUDY    59  59 100 SE5       29.85F
CAHOKIA*       CLOUDY    59  57  93 E5        29.84F
SPARTA*        CLOUDY    57  56  97 E6        29.89F
$$

ILZ064>066-069>071-074>076-080>082-084>086-088>090-092>094-010700-
SOUTH-CENTRAL ILLINOIS

CITY           SKY/WX    TMP DP  RH WIND       PRES   REMARKS
CARBONDALE     CLOUDY    61  54  77 N8        29.89S
6HR MIN TEMP:  61; 6HR MAX TEMP:  71;

CAIRO*         CLOUDY    63  62  96 CALM      29.86R
EFFINGHAM*     RAIN      60  55  83 SW12      29.89R
MARION         CLOUDY    63  55  77 N8        29.91S
MT. VERNON     CLOUDY    57  54  88 CALM      29.92F
CENTRALIA*     TSTM      59  58  98 SE7       29.89F
SALEM*         RAIN      59  57  93 SE6       29.88F
METROPOLIS*    CLOUDY    64  64 100 CALM      29.88S
$$

ILZ067-068-072-073-078-083-087-091-010700-
SOUTHEAST ILLINOIS

CITY           SKY/WX    TMP DP  RH WIND       PRES   REMARKS
LAWRENCEVILLE  CLOUDY    63  63 100 SW6         N/A  FOG
FLORA*         RAIN      61  56  84 W14       29.91S
FAIRFIELD*     RAIN      58  57  95 CALM      29.91R
HARRISBURG*    CLOUDY    64  58  82 N8        29.91R
ROBINSON*      FOG       60  60 100 S5        29.88S VSB 1/2
CARMI*         MOCLDY    63  62  97 W23G29    29.90R
$$

ABBREVIATIONS USED IN REMARKS
   TC - TEMPERATURE IN CELSIUS
  WCI - WIND CHILL INDEX
   HX - HEAT INDEX
  VSB - VISIBILITY
$$




USA.gov is the U.S. government's official web portal to all federal, state and local government web resources and services.